Regional Weather Roundup
Issued by NWS Grand Forks, ND

Home | Current Version | Previous Version | Text Only | Print | Product List | Glossary On
Versions: 1 2 3 4 5 6 7 8 9 10 11 12 13 14 15 16 17 18 19 20 21 22 23 24 25 26 27 28 29 30 31 32 33 34 35 36 37 38 39 40 41 42 43 44 45 46 47 48 49 50
000
ASUS43 KFGF 211631
RWRFGF
PRAIRIE TO PINES  WEATHER ROUNDUP
NATIONAL WEATHER SERVICE EASTERN NORTH DAKOTA/GRAND FORKS ND
1000 AM CST SUN DEC 21 2014

 **SATELLITE DATA USED TO AUGMENT SKY COVER AT AUTOMATED STATIONS**
 *****  WEATHER ACROSS EASTERN NORTH DAKOTA  *****

CITY           SKY/WX    TMP DP  RH WIND       PRES   REMARKS
GRAND FORKS    CLOUDY    31  29  92 S17       29.68F FOG     WCI  19
GRAND FRKS AFB CLOUDY    29  29 100 S14       29.68S WCI  19
GRAND FRKS NWS   N/A     30 N/A N/A S15         N/A  WCI  19
DEVILS LAKE    MOSUNNY   21  14  73 SE9       29.59S WCI  11
FARGO          CLOUDY    32  28  85 S13G23    29.70F FOG     WCI  22
WAHPETON ARPT  CLOUDY    32  28  86 SE13      29.72F WCI  22
$$

 ***** WEATHER ACROSS CENTRAL AND WESTERN NORTH DAKOTA  *****

CITY           SKY/WX    TMP DP  RH WIND       PRES   REMARKS
BISMARCK       SUNNY     25  23  92 SE5       29.56F WCI  19
MINOT          CLEAR     18  14  84 E3        29.51F
JAMESTOWN      FOG       29  26  89 S7        29.62F VSB 1/4 WCI  22
MINOT AFB      NOT AVBL
GARRISON         N/A     23  21  92 CALM      29.51F
WILLISTON      CLOUDY    21  18  88 CALM      29.44F
DICKINSON      SUNNY     30  24  78 S10       29.43F WCI  21
HETTINGER      SUNNY     28  24  85 SE5       29.49F WCI  23
$$

 *****  OTHER AIRPORT OBSERVATIONS IN OUR AREA  *****

CITY           SKY/WX    TMP DP  RH WIND       PRES   REMARKS
WALHALLA         N/A     25  25 100 S13       29.64S WCI  13
GRAFTON AIRPOR NOT AVBL
VALLEY CITY AR FOG       28  28 100 S14G25    29.65S VSB<1/4 WCI  17
CANDO          FAIR      21  19  93 SE5       29.60S WCI  15
CAVALIER APRT  CLOUDY    27  27 100 S14       29.65S FOG     WCI  15
GWINNER        PTSUNNY   32  32 100 MISG      29.68F
ROLLA          FOG       16  16 100 MISG      29.57S VSB 1/4
 ***** THE ABOVE OBSERVATIONS ARE NON NWS ARE NOT QUALITY
       CONTROLLED AND MAY MIS-REPORT RAIN FOR SNOW...
$$

  *****  WEATHER ACROSS NORTHERN MINNESOTA  *****

CITY           SKY/WX    TMP DP  RH WIND       PRES   REMARKS
FLAG ISLAND    CLOUDY    28  28 100 SE17      29.71F FOG     WCI  16
WARROAD        LGT SNOW  30  27  86 S6        29.72S VSB 1   WCI  24
ROSEAU         LGT SNOW  30  27  86 S14       29.71S WCI  20
HALLOCK        CLOUDY    30  30 100 CALM      29.67S FOG
THF RVR FALLS  CLOUDY    30  30 100 S13       29.71S WCI  20
BAUDETTE       LGT SNOW  30  28  92 S9        29.73S FOG     WCI  22
WASKISH        CLOUDY    30  30 100 S3        29.75S
CROOKSTON      CLOUDY    30  28  93 S22       29.72S FOG     WCI  17
STEPHEN NDAWN    N/A     30  30 100 S18         N/A  WCI  18
GREENBUSH NDAW   N/A     30  30 100 S1          N/A
$$
  *****  WEATHER ACROSS CENTRAL AND WEST MINNESOTA  *****

CITY           SKY/WX    TMP DP  RH WIND       PRES   REMARKS
FOSSTON        CLOUDY    28  27  93 S14       29.72S FOG     WCI  17
BEMIDJI        CLOUDY    29  28  96 S14       29.74S FOG     WCI  19
PARK RAPIDS    CLOUDY    30  29  96 S9        29.76S FOG     WCI  22
ELBOW LAKE     CLOUDY    30  30  98 S13       29.73F FOG     WCI  20
WADENA         CLOUDY    28  28 100 S9        29.76F FOG     WCI  20
DETROIT LAKES  CLOUDY    32  30  93 S14       29.73F FOG     WCI  22
MOORHEAD       CLOUDY    32  32 100 S17G24    29.72F FOG     WCI  21
FERGUS FALLS   CLOUDY    30  30 100 S12       29.76F FOG     WCI  21
MORRIS MN      CLOUDY    32  30  93 SE15      29.72F FOG     WCI  22
STAPLES        CLOUDY    30  30 100 S10       29.77F FOG     WCI  21
$$
  *****  WEATHER ELSEWHERE ACROSS MINNESOTA  *****

CITY           SKY/WX    TMP DP  RH WIND       PRES   REMARKS
DULUTH         FOG       31  28  89 SE13      29.85F VSB 1   WCI  21
INTRNTL FALLS  CLOUDY    29  27  92 S3        29.79S FOG
ELY            CLOUDY    28  27  93 S10       29.84F WCI  19
CLOQUET        CLOUDY    30  28  93 SE6       29.85F FOG     WCI  24
WHEATON        CLOUDY    28  28 100 SE12      29.74S FOG     WCI  18
BRAINERD       CLOUDY    31  30  96 S10       29.80S FOG     WCI  22
HIBBING        CLOUDY    31  27  85 S8        29.82F WCI  23
ALEXANDRIA     FOG       30  30 100 S14       29.75F VSB 1   WCI  19
SAINT CLOUD    FOG       34  32  92 SE12      29.82F VSB 1/2
MINNEAPOLIS    LGTSLEET  34  32  92 SE12      29.86F FOG
$$

  *****  WEATHER ACROSS SOUTH DAKOTA  *****

CITY           SKY/WX    TMP DP  RH WIND       PRES   REMARKS
SIOUX FALLS    FOG       33  33 100 S12       29.74F VSB 1/8 WCI  24
BROOKINGS      NOT AVBL
WATERTOWN      FOG       30  29  96 S14       29.68S VSB 1/4 WCI  19
HURON          CLOUDY    30  30 100 S14       29.67S FOG     WCI  19
SISSETON         N/A     31  30  96 S13       29.69F WCI  21
ABERDEEN       FOG       31  30  96 S12       29.66F VSB 1/2 WCI  22
MITCHELL       CLOUDY    32  31  96 SE15      29.69F FOG     WCI  22
PIERRE         SUNNY     26  24  92 SE8       29.57F WCI  18
MOBRIDGE       SUNNY     27  24  89 SE7       29.55F WCI  19
RAPID CITY     MOSUNNY   31  25  78 E6        29.48F
$$

  *****  SOME WEATHER IN NEARBY STATES *****

CITY           SKY/WX    TMP DP  RH WIND       PRES   REMARKS
GLASGOW MT     CLOUDY    27  23  85 SE12      29.34F WCI  17
GREAT FALLS MT MOCLDY    42  32  67 SW17      29.34R
CHEYENNE WY    PTSUNNY   42  19  39 SW9       29.63F
SCOTTSBLUFF NE PTSUNNY   32  22  66 S8        29.61F WCI  25
OMAHA NE       CLOUDY    39  37  92 S20       29.87F FOG
DES MOINES IA  CLOUDY    40  33  76 MISG      29.96S
DAVENPORT IA   CLOUDY    38  32  79 S16       30.10F
CHICAGO IL     CLOUDY    33  27  78 S12       30.19S WCI  24
EAU CLAIRE WI  CLOUDY    32  30  92 SE12      29.95F FOG     WCI  23
LA CROSSE WI   CLOUDY    37  33  85 S12       29.99S FOG
$$

  *****  SOME NATIONAL WEATHER *****

CITY           SKY/WX    TMP DP  RH WIND       PRES   REMARKS
LA GUARDIA NY  CLOUDY    33  27  78 NW9       30.32S
RALEIGH NC     CLOUDY    42  34  73 E6        30.33S
ATLANTA GA     CLOUDY    48  44  86 E8        30.20S FOG
NEW ORLEANS LA CLOUDY    54  48  80 E6        30.12R
OKLAHOMA CITY  CLOUDY    47  41  80 S18G24    29.97F
ALBUQUERQUE NM PTSUNNY   36  28  73 N3        30.06R
SALT LAKE CITY LGT RAIN  39  35  86 S20G26    29.97F
LOS ANGELES CA CLOUDY    53  47  79 VRB5      30.14R HAZE
BOISE ID       CLOUDY    44  41  89 CALM      29.85R
SEATTLE WA     CLOUDY    51  46  83 SW13G24   29.85R
$$

*** WEATHER ACROSS MANITOBA...SASKATCHEWAN AND ONTARIO ***
                ***ONTARIO***

CITY           SKY/WX    TMP DP  RH WIND       PRES   REMARKS
GERALDTON      LGT SNOW  30  28  93 S8        29.99S WCI  23
THUNDER BAY    CLOUDY    34  28  80 S6        29.98
SIOUX LOOKOUT  LGT SNOW  28  27  93 S8        29.80F FOG     WCI  20
TORONTO        PTSUNNY   34  23  64 N3        30.31F
BIG TROUT LK   CLOUDY    27  27 100 S9        29.85S WCI  17
PICKLE LAKE    LGT SNOW  28  27  93 S7        29.84  VSB 1   WCI  21
DRYDEN         FLURRIES  28  27  93 S9        29.77F WCI  20
KENORA         LGT SNOW  27  27 100 S10       29.73  DRFTSNOWWCI  17
$$
                *** MANITOBA***

CITY           SKY/WX    TMP DP  RH WIND       PRES   REMARKS
BRANDON        FOG       27  27 100 S3        29.57S VSB 1/8
DAUPHIN        FLURRIES  27  25  93 SE3       29.56F
ISLAND LAKE    FLURRIES  27  25  93 SE8       29.72S WCI  18
PILOT MOUND      N/A     18  16  93 CALM        N/A
THE PAS        CLOUDY    21  21 100 SE8       29.58S WCI  12
THOMPSON       FRZ DRZL  19  18  93 NE3       29.68F
WINNIPEG       CLOUDY    30  28  93 S16       29.65  FOG     WCI  19
LYNN LAKE      FLURRIES  12  10  92 SE6       29.63S WCI   3
CHURCHILL      FLURRIES  16  14  93 W7        29.75  WCI   6
GILLAM         FRZ DRZL  21  19  93 SW6       29.75  WCI  14
$$
                ***SASKATCHEWAN***

CITY           SKY/WX    TMP DP  RH WIND       PRES   REMARKS
ESTEVAN        PTCLDY    19  18  93 E8        29.45F WCI   9
KINDERSLEY     CLOUDY    21  18  86 E10       29.26  WCI  10
LLOYDMINSTER   SNOW      16  14  93 E13       29.33  VSB 3/8 WCI   2
PRINCE ALBERT  CLOUDY    21  19  93 E7        29.46F WCI  13
REGINA         NOT AVBL
YORKTON        FOG       27  27 100 SE9       29.49F VSB 1/4 WCI  17
N. BATTLEFORD  FOG       19  18  93 E17       29.38S VSB 3/4 WCI   4
LA RONGE       MOCLDY    16  14  93 E8        29.53  WCI   5
SASKATOON      FOG       21  19  93 E12       29.40F VSB 1   WCI   9
SWIFT CURRENT  CLEAR     25  21  86 S14       29.26F WCI  13
$$
NOTE: THESE ARE AUTOMATED STATIONS WITH LIMITED QUALITY CONTROL
      "FAIR" INDICATES FEW OR NO CLOUDS BELOW 12,000 FEET WITH NO
      SIGNIFICANT WEATHER AND/OR OBSTRUCTIONS TO VISIBILITY.
      SKY/WX - SKY CONDITION AND SIGNIFICANT WEATHER.
      TMP - AIR TEMPERATURE.    DP   - DEWPOINT TEMPERATURE.
      RH  - RELATIVE HUMIDITY.  PRES - PRESSURE.
      HX  - HEAT INDEX.         WCI  - WIND CHILL INDEX.
$



USA.gov is the U.S. government's official web portal to all federal, state and local government web resources and services.